{"data":{"norad_id":69525,"epoch":"2026-09-19T12:00:26.625024Z","epoch_age_seconds":111870,"freshness":"FRESH","line1":"1 69525U 26133T   26262.50030816  .00022669  00000+0  68011-3 0  9996","line2":"2 69525  53.1568 234.1549 0002210  75.7680 284.3568 15.34395273 16615","mean_motion":15.34395273,"eccentricity":0.000221,"inclination_deg":53.1568,"raan_deg":234.1549,"arg_perigee_deg":75.768,"mean_anomaly_deg":284.3568,"bstar":0.00068011,"rev_number":1661,"period_min":93.848047197419,"perigee_km":461.20546108528,"apogee_km":464.22911868141,"semimajor_km":6840.8542898833,"source":"CELESTRAK","updated_at":"2026-09-20T09:00:44.238842Z"}}